Location: Sobotiste
(48.7170°N, 17.4000°E)
Time: 09:26:12
(UTC+02:00)

YUBILEINY - Pass Details

Date: 17 March 2026
Orbit: 1477 x 1509 km, 82.5° (Epoch: 17 April)

Event Time Altitude Azimuth Distance (km) Brightness Sun altitude
Rises 04:12:26 0° 346° (NNW) 4,621 ? -18.3°
Reaches altitude 10° 04:15:34 10° 339° (NNW) 3,634 ? -17.8°
Maximum altitude 04:23:17 38° 276° (W) 2,133 ? -16.6°
Drops below altitude 10° 04:30:58 10° 213° (SSW) 3,608 ? -15.3°
Sets 04:34:05 0° 205° (SSW) 4,584 ? -14.9°
